Weather History for KLAR - April, 2012

Change the Weather History Date:

Friday, April 6, 2012

  Actual Average Record
Temperature  
Mean Temperature 41 °F 35 °F  
Max Temperature 60 °F 48 °F 72 °F (1959)
Min Temperature 21 °F 22 °F -8 °F (1983)
Degree Days  
Heating Degree Days 24 30  
Month to date heating degree days 137 182  
Since 1 July heating degree days 7110 7417  
Cooling Degree Days 0 0  
Month to date cooling degree days 0 0  
Year to date cooling degree days 0 0  
Moisture  
Dew Point 16 °F    
Average Humidity 49    
Maximum Humidity 92    
Minimum Humidity 6    
Precipitation  
Precipitation 0.00 in 0.03 in 0.11 in (1951)
Month to date precipitation 0.02 0.15  
Year to date precipitation 1.13 1.34  
Sea Level Pressure  
Sea Level Pressure 29.66 in    
Wind  
Wind Speed 24 mph (SW)    
Max Wind Speed 51 mph    
Max Gust Speed 62 mph    
Visibility 10 miles    
Events      
T = Trace of Precipitation, MM = Missing Value Source: NWS Daily Summary

Daily Weather History Graph

Daily Weather History Graph

Search for Another Location

Airport or City:

Trip Planner

Search our weather history database for the weather conditions in past years. The results will help you decide how hot, cold, wet, or windy it might be!

Date:

Astronomy

Apr. 06, 2012 Rise Set
Actual Time 6:36 AM MDT 7:33 PM MDT
Civil Twilight 6:08 AM MDT 8:02 PM MDT
Nautical Twilight 5:35 AM MDT 8:35 PM MDT
Astronomical Twilight 5:00 AM MDT 9:10 PM MDT
Moon 7:57 PM MDT (4/6) 6:10 AM MDT (4/6)
Length of Visible Light 13h 53m
Length of Day
12h 57m
Full, 100% of the Moon is Illuminated
Apr 6
Full
Apr 6
Full
Apr 13
Last Quarter
Apr 21
New
Apr 29
First Quarter

Hourly Weather History & Observations

Time (MDT) Temp. Windchill Dew Point Humidity Pressure Visibility Wind Dir Wind Speed Gust Speed Precip Events Conditions
12:53 AM 41.0 °F 32.5 °F 37.9 °F 89% 29.60 in 10.0 mi SE 17.3 mph - N/A   Partly Cloudy
1:53 AM 39.2 °F 31.2 °F 37.4 °F 93% 29.82 in 10.0 mi SSE 13.8 mph - N/A   Clear
2:53 AM 39.0 °F 30.6 °F 35.1 °F 86% 29.55 in 10.0 mi SSE 15.0 mph - N/A   Clear
3:53 AM 37.0 °F 28.9 °F 35.1 °F 93% 29.56 in 10.0 mi South 12.7 mph - N/A   Clear
4:53 AM 37.9 °F 29.2 °F 34.0 °F 86% 29.55 in 10.0 mi SSE 15.0 mph - N/A   Clear
5:53 AM 37.0 °F 30.4 °F 30.9 °F 79% 29.54 in 10.0 mi SSE 9.2 mph - N/A   Clear
6:53 AM 37.0 °F 29.3 °F 28.0 °F 70% 29.56 in 10.0 mi SE 11.5 mph - N/A   Clear
7:53 AM 42.8 °F 35.8 °F 28.4 °F 57% 29.74 in 10.0 mi SE 13.8 mph - N/A   Clear
8:53 AM 54.0 °F - 18.0 °F 24% 29.45 in 10.0 mi SSW 32.2 mph 43.7 mph N/A   Clear
9:53 AM 55.9 °F - 9.0 °F 15% 29.44 in 10.0 mi SW 35.7 mph 47.2 mph N/A   Clear
10:53 AM 57.9 °F - 3.9 °F 11% 29.44 in 10.0 mi SSW 41.4 mph 51.8 mph N/A   Clear
11:53 AM 60.1 °F - -8.0 °F 6% 29.44 in 10.0 mi SW 41.4 mph 59.8 mph N/A   Clear
12:53 PM 59.0 °F - -4.0 °F 8% 29.47 in 10.0 mi SW 40.3 mph 52.9 mph N/A   Clear
1:53 PM 59.0 °F - 3.0 °F 11% 29.50 in 10.0 mi SW 32.2 mph 42.6 mph N/A   Clear
2:53 PM 57.0 °F - 6.1 °F 13% 29.54 in 10.0 mi West 24.2 mph 41.4 mph N/A   Clear
3:53 PM 55.0 °F - 5.0 °F 13% 29.57 in 10.0 mi WSW 32.2 mph 44.9 mph N/A   Clear
4:53 PM 52.0 °F - 1.9 °F 13% 29.62 in 10.0 mi WSW 29.9 mph 36.8 mph N/A   Clear
5:53 PM 45.0 °F 34.9 °F 7.0 °F 21% 29.73 in 10.0 mi West 32.2 mph 42.6 mph N/A   Clear
6:53 PM 37.0 °F 24.5 °F 14.0 °F 39% 29.87 in 10.0 mi West 29.9 mph 40.3 mph N/A   Clear
7:53 PM 30.9 °F 17.2 °F 15.1 °F 52% 29.93 in 10.0 mi West 25.3 mph 34.5 mph N/A   Clear
8:53 PM 28.0 °F 18.6 °F 16.0 °F 61% 29.95 in 10.0 mi WNW 10.4 mph 20.7 mph N/A   Clear
9:53 PM 27.0 °F 16.1 °F 8.1 °F 45% 29.99 in 10.0 mi WNW 12.7 mph 21.9 mph N/A   Clear
10:53 PM 26.1 °F 12.0 °F 6.1 °F 43% 30.00 in 10.0 mi West 20.7 mph 26.5 mph N/A   Clear
11:53 PM 25.0 °F 10.2 °F 7.0 °F 46% 30.03 in 10.0 mi West 21.9 mph 27.6 mph N/A   Clear